Location: Brookfield Center
(41.2406°N, 80.5579°W)
Time: 20:47:20
(UTC+00:00)

CZ-3 R/B - Pass Details

Date: 18 January 2020
Orbit: 346 x 10270 km, 28.4° (Epoch: 16 February)

Event Time Altitude Azimuth Distance (km) Brightness Sun altitude
Rises 07:27:02 0° 236° (SW) 15,019 7.3 -58.2°
Enters shadow 07:42:18 - 234° (SW) 13,214 6.9 -55.7°
Exits shadow 08:26:14 45° 184° (S) 4,582 4.6 -48.0°
Maximum altitude 08:27:50 45° 175° (S) 4,272 4.5 -47.7°
Drops below altitude 10° 08:39:05 10° 106° (ESE) 3,970 5.1 -45.7°
Sets 08:41:17 0° 99° (E) 4,430 5.6 -45.3°
